Orbital Elements at Epoch 2459000.5 (2020-May-31.0) TDB
Reference: JPL 26 (heliocentric ecliptic J2000)
Element | Value | Uncertainty (1-sigma) | Units |
e | .1486369783599738 | 5.7331e-08 | |
a | 2.631331886422514 | 1.6681e-08 | au |
q | 2.240218665762422 | 1.5476e-07 | au |
i | 13.05120235101088 | 5.3197e-06 | deg |
node | 249.0849682279133 | 2.1976e-05 | deg |
peri | 95.67575025464502 | 2.8632e-05 | deg |
M | 252.0394040179409 | 1.9946e-05 | deg |
tp | 2459468.046319125662 (2021-Sep-10.54631913) | 8.7273e-05 | TDB |
period | 1559.056555349226 4.27 | 1.4825e-05 4.059e-08 | d yr |
n | .2309088780421828 | 2.1957e-09 | deg/d |
Q | 3.022445107082606 | 1.916e-08 | au |
|
| | Orbit Determination Parameters
Additional Information
|